User: anonymous   Login
Location: Armidale
(30.5016°S, 151.6662°E)
Time: 04:59:11
(UTC+10:00)
Language:

QB50P2 - Orbit

View from above orbital plane
View from above orbital plane
View from above satellite
View from above satellite

Ground track
Ground track

The orbit data is extracted from the following two-line orbital elements,

1 40032U 14033Y   21203.80037270  .00000500  00000-0  59075-4 0  9990
2 40032  97.9164 131.0471 0013184  62.6223 297.6334 14.88984637385077
Epoch (UTC): 22 July 2021 19:12:32
Eccentricity: 0.0013184
inclination: 97.9164°
perigee height: 592 km
apogee height: 610 km
right ascension of ascending node: 131.0471°
argument of perigee: 62.6223°
revolutions per day: 14.88984637
mean anomaly at epoch: 297.6334°
orbit number at epoch: 38507

The dashed part of the orbit path shows where the satellite is in the earth's shadow,  

DLR